[[{"header":{"parameterUnit":"m.s-1","parameterCategory":1,"la1":30.2991,"la2":30.254,"lo1":-89.0895,"lo2":-89.0444,"dy":0.0017,"dx":0.0017,"nx":28,"ny":28,"refTime":"2024-09-30T03:00:00:Z","depth":0,"parameterNumber":2,"parameterNumberName":"U-component_of_WINDS"},"data":[0,0,0,0,0,0,0,0,0,0,0,0,0,0,0,0,0,0,0,0,0,0,0,0,0,0,0,0,0,0,0,0,0,0,0,0,0,0,0,0,0,0,0,0,0,0,0,0,0,0,0,0,0,0,0,0,0,0,0.6102,0.6102,0,0.6152,0.6153,0.6153,0.6203,0.6203,0.6204,0.6204,0.6257,0.6258,0.6259,0,0,0,0,0,0,0,0,0,0,0,0,0,0.6048,0.6049,0.6102,0.6102,0.6103,0.6152,0.6153,0.6153,0.6202,0.6203,0.6204,0.6205,0.6257,0.6258,0.6259,0,0,0,0,0,0,0,0,0,0,0,0,0,0.6082,0.6049,0.6102,0.6133,0.6137,0.6152,0.6153,0.6154,0.6202,0.6203,0.6204,0.6205,0.6257,0.6258,0.6259,0.6247,0,0,0.6263,0.6263,0,0,0,0,0,0,0,0,0.608,0.6084,0.6128,0.6131,0.6135,0.6172,0.6153,0.6185,0.6202,0.6177,0.6204,0.6206,0.6228,0.6232,0.6239,0.625,0.6252,0.6263,0.6264,0.6264,0.6265,0,0,0,0,0,0,0,0.6078,0.6082,0.6122,0.6129,0.6133,0.6145,0.6151,0.616,0.6197,0.618,0.6183,0.6189,0.623,0.6238,0.6241,0.6253,0.6263,0.6264,0.6265,0.6265,0.6255,0.6254,0,0,0,0,0,0,0.6071,0.608,0.612,0.6123,0.6109,0.6145,0.6152,0.6159,0.6197,0.6204,0.6188,0.6191,0.6235,0.6239,0.6243,0.623,0.6264,0.6265,0.6266,0.6256,0.6255,0.6254,0,0,0,0,0,0,0.6069,0.6074,0.6118,0.6103,0.6109,0.6145,0.6153,0.616,0.6167,0.6203,0.621,0.6188,0.6236,0.6241,0.6245,0.6233,0.6266,0.6267,0.6257,0.6255,0.6254,0.6205,0,0,0,0,0,0,0.6068,0.6073,0.6069,0.6102,0.611,0.6119,0.6152,0.616,0.6169,0.6173,0.6206,0.6212,0.6237,0.6243,0.6247,0.6235,0.6268,0.6258,0.6256,0.6255,0.6208,0.6202,0.6197,0,0,0,0,0,0.6065,0.6054,0.6068,0.6073,0.6105,0.6119,0.6123,0.6152,0.6168,0.6164,0.6187,0.6211,0.6234,0.6243,0.6247,0.6236,0.6259,0.6257,0.6255,0.621,0.6203,0.6197,0,0,0,0,0,0,0.6019,0.6059,0.6075,0.6074,0.6092,0.6127,0.6123,0.6144,0.6159,0.6162,0.6198,0.6205,0.6205,0.6221,0.6231,0.6226,0.625,0.6248,0.6215,0.6208,0.6203,0.6198,0.6269,0,0,0,0,0,0.6008,0.6015,0.605,0.6045,0.6054,0.6086,0.6093,0.6114,0.6135,0.6143,0.6166,0.6186,0.6197,0.6204,0.6217,0.6211,0.6218,0.6205,0.62,0.6195,0.6193,0.6189,0.6183,0.6246,0.6246,0.6246,0,0,0.5986,0.6009,0.6011,0.6036,0.6053,0.6059,0.6093,0.6098,0.6103,0.6144,0.6149,0.6166,0.6191,0.6189,0.619,0.6203,0.6177,0.6192,0.6188,0.6188,0.6186,0.618,0.6175,0.6245,0.6245,0.6245,0,0,0.5949,0.5968,0.5965,0.5981,0.6005,0.6027,0.6026,0.6058,0.607,0.6076,0.6106,0.6113,0.6132,0.6147,0.6158,0.6126,0.6148,0.6129,0.61,0.6096,0.6091,0.6087,0.6073,0.6068,0.6127,0.6127,0.6127,0,0.5919,0.5929,0.5961,0.5964,0.5974,0.6011,0.6008,0.6022,0.6049,0.6055,0.6069,0.6093,0.6112,0.6114,0.6106,0.6114,0.6113,0.6125,0.6089,0.6085,0.6081,0.6069,0.6064,0.6124,0.6125,0.6125,0.6125,0,0.589,0.5897,0.5892,0.5916,0.5926,0.5926,0.5957,0.5963,0.5983,0.6003,0.6007,0.6031,0.6048,0.6051,0.6071,0.6055,0.6062,0.6082,0.6107,0.6072,0.6061,0.6057,0.612,0.6121,0.6122,0.6123,0,0,0.5824,0.5866,0.5863,0.5874,0.5903,0.5909,0.5911,0.5927,0.593,0.5949,0.595,0.5965,0.5983,0.5995,0.6017,0.6014,0.5984,0.6035,0.6036,0.6022,0.5966,0.5949,0.5943,0.6,0.5999,0.5999,0.5963,0,0.5791,0.5795,0.5823,0.5819,0.5825,0.586,0.5861,0.5879,0.5898,0.5906,0.5927,0.5936,0.5961,0.5968,0.5966,0.5988,0.5973,0.5992,0.6001,0.6,0.5991,0.5938,0.592,0.5885,0.5959,0.5959,0.5958,0,0.5752,0.5766,0.5762,0.579,0.5794,0.5794,0.581,0.5818,0.5839,0.5853,0.5865,0.589,0.5893,0.5917,0.5921,0.5933,0.5939,0.595,0.595,0.595,0.5976,0.5934,0.5875,0.5869,0.5952,0.5952,0.5953,0,0.5701,0.572,0.5719,0.5728,0.5761,0.576,0.5775,0.5797,0.5804,0.5819,0.5824,0.5839,0.5847,0.5858,0.5886,0.5901,0.5886,0.5913,0.5896,0.5896,0.589,0.589,0.5829,0.5897,0.5897,0.5897,0.5898,0,0.566,0.5655,0.5697,0.5696,0.5692,0.5725,0.572,0.5738,0.5757,0.576,0.5792,0.5794,0.5832,0.5839,0.5861,0.586,0.5864,0.5875,0.588,0.587,0.5869,0.5873,0.5875,0.5896,0.5896,0.5897,0.5897,0,0.5602,0.563,0.5631,0.5662,0.567,0.5665,0.5692,0.5693,0.5714,0.5717,0.572,0.5752,0.5762,0.5791,0.5808,0.5823,0.5815,0.5827,0.5807,0.581,0.5791,0.5791,0.5729,0.5721,0.5796,0.5796,0.5795,0,0.5572,0.557,0.56,0.5604,0.5616,0.5623,0.563,0.5663,0.5669,0.5692,0.569,0.5701,0.5712,0.5725,0.575,0.5763,0.5775,0.5752,0.5777,0.5766,0.5772,0.577,0.5769,0.5746,0.5745,0.5744,0.5743,0,0.5516,0.553,0.5539,0.5552,0.556,0.5573,0.5587,0.5589,0.5625,0.563,0.5639,0.5648,0.5664,0.5675,0.5692,0.5707,0.573,0.5736,0.5732,0.5721,0.5708,0.5712,0.579,0.5736,0.5737,0.5738,0.5738,0.5738,0.547,0.5469,0.5489,0.5498,0.5512,0.5524,0.5526,0.5546,0.5555,0.557,0.5589,0.5595,0.5616,0.5641,0.5653,0.5659,0.5672,0.5667,0.5666,0.5663,0.5658,0.5709,0.5662,0.5663,0.5663,0.5663,0.5663,0,0.5414,0.5429,0.5436,0.5455,0.5461,0.5483,0.55,0.5504,0.5509,0.5526,0.5536,0.5546,0.5556,0.5582,0.5594,0.5594,0.5605,0.5596,0.5595,0.5597,0.5647,0.5647,0.5586,0.5586,0.5586,0.5586,0.5586,0.5586,0.5385,0.5382,0.5398,0.5403,0.5418,0.5424,0.5432,0.5443,0.5456,0.5466,0.5474,0.5491,0.5511,0.5525,0.5535,0.5542,0.5545,0.5531,0.5542,0.5587,0.5594,0.5601,0.5602,0.5532,0.5532,0.5492,0.5492,0.5491]},{"header":{"parameterUnit":"m.s-1","parameterCategory":1,"la1":30.2991,"la2":30.254,"lo1":-89.0895,"lo2":-89.0444,"dy":0.0017,"dx":0.0017,"nx":28,"ny":28,"refTime":"2024-09-30T03:00:00:Z","depth":0,"parameterNumber":3,"parameterNumberName":"V-component_of_WINDS"},"data":[0,0,0,0,0,0,0,0,0,0,0,0,0,0,0,0,0,0,0,0,0,0,0,0,0,0,0,0,0,0,0,0,0,0,0,0,0,0,0,0,0,0,0,0,0,0,0,0,0,0,0,0,0,0,0,0,0,0,1.3143,1.3143,0,1.3098,1.3098,1.3097,1.3084,1.3084,1.3084,1.3084,1.3035,1.3034,1.3032,0,0,0,0,0,0,0,0,0,0,0,0,0,1.3214,1.3213,1.3143,1.3143,1.3142,1.3098,1.3098,1.3097,1.3084,1.3084,1.3084,1.3085,1.3036,1.3034,1.3032,0,0,0,0,0,0,0,0,0,0,0,0,0,1.3178,1.3213,1.3143,1.313,1.3129,1.3098,1.3098,1.3097,1.3084,1.3084,1.3084,1.3085,1.3036,1.3034,1.3032,1.3011,0,0,1.3025,1.3024,0,0,0,0,0,0,0,0,1.318,1.3175,1.3133,1.3131,1.3129,1.3097,1.3105,1.3068,1.3084,1.3101,1.3084,1.3085,1.3055,1.3051,1.3042,1.3008,1.3006,1.3025,1.3023,1.3022,1.3022,0,0,0,0,0,0,0,1.3183,1.3177,1.3125,1.3132,1.313,1.3126,1.3121,1.3098,1.3076,1.3099,1.3098,1.3093,1.3054,1.3044,1.3041,1.3005,1.3025,1.3023,1.3021,1.302,1.2951,1.2951,0,0,0,0,0,0,1.3188,1.3179,1.3127,1.3124,1.3156,1.3124,1.3119,1.3107,1.3077,1.3072,1.3093,1.3093,1.3048,1.3044,1.3039,1.3012,1.3022,1.302,1.3019,1.2952,1.2951,1.2951,0,0,0,0,0,0,1.3189,1.3183,1.3128,1.3151,1.3144,1.3122,1.3109,1.3106,1.3096,1.3072,1.3068,1.3087,1.3048,1.3042,1.3018,1.301,1.3019,1.3017,1.2952,1.2952,1.2951,1.2958,0,0,0,0,0,0,1.3191,1.3184,1.3176,1.3151,1.3143,1.3109,1.3109,1.3105,1.3092,1.3092,1.3065,1.3061,1.3048,1.3021,1.3016,1.3007,1.3015,1.2953,1.2952,1.2951,1.2958,1.2957,1.2957,0,0,0,0,0,1.3194,1.3179,1.3176,1.3169,1.3133,1.3108,1.3104,1.309,1.3092,1.3083,1.3068,1.3062,1.3012,1.3019,1.3012,1.3003,1.2953,1.2952,1.2951,1.2958,1.2957,1.2957,0,0,0,0,0,0,1.3202,1.3175,1.3172,1.3148,1.3131,1.3106,1.3095,1.3089,1.307,1.307,1.3053,1.3047,1.3024,1.3011,1.3019,1.2981,1.2982,1.298,1.299,1.2989,1.2988,1.2991,1.3013,0,0,0,0,0,1.3201,1.3185,1.3162,1.3143,1.3135,1.3117,1.3106,1.3097,1.3078,1.307,1.3053,1.3033,1.3014,1.3001,1.2981,1.2956,1.295,1.2947,1.2946,1.2946,1.2943,1.2929,1.2927,1.2948,1.2948,1.2948,0,0,1.3199,1.3183,1.3173,1.3145,1.313,1.3112,1.3111,1.3092,1.3078,1.3067,1.3043,1.303,1.3007,1.2982,1.2971,1.2971,1.2937,1.2944,1.2944,1.2942,1.2928,1.2926,1.2924,1.2947,1.2947,1.2947,0,0,1.3186,1.3172,1.3155,1.3141,1.312,1.3108,1.3104,1.308,1.3072,1.3048,1.3039,1.3022,1.2988,1.2972,1.296,1.2942,1.2935,1.2936,1.2932,1.2918,1.2916,1.2915,1.2908,1.2906,1.2934,1.2934,1.2934,0,1.3186,1.316,1.3147,1.3129,1.3117,1.3107,1.3089,1.3076,1.3049,1.304,1.3041,1.2998,1.2982,1.2954,1.295,1.294,1.2934,1.2938,1.2918,1.2916,1.2915,1.2908,1.2905,1.2934,1.2934,1.2934,1.2934,0,1.316,1.3142,1.3131,1.3106,1.3093,1.3075,1.3059,1.3047,1.3039,1.3027,1.3003,1.2983,1.296,1.2952,1.2944,1.2923,1.2924,1.2922,1.2923,1.2913,1.2906,1.2904,1.2934,1.2934,1.2934,1.2934,0,0,1.315,1.3119,1.3115,1.3104,1.308,1.3066,1.3047,1.3025,1.3015,1.2996,1.298,1.2952,1.295,1.2936,1.2926,1.2915,1.2901,1.2914,1.2913,1.2912,1.2875,1.2877,1.2874,1.2897,1.2896,1.2896,1.2877,0,1.3133,1.3101,1.309,1.3063,1.3046,1.3037,1.3021,1.3004,1.2992,1.2975,1.2962,1.2942,1.2941,1.2933,1.2921,1.2905,1.2893,1.2907,1.288,1.288,1.2886,1.2871,1.2872,1.2855,1.2875,1.2874,1.2874,0,1.311,1.3092,1.3064,1.3043,1.3035,1.3021,1.3,1.2985,1.2965,1.2957,1.2942,1.2933,1.2913,1.2916,1.2887,1.2897,1.2885,1.2876,1.2875,1.2872,1.2876,1.2866,1.2849,1.2847,1.287,1.287,1.287,0,1.3104,1.3074,1.3053,1.3044,1.3019,1.3009,1.2998,1.2979,1.2966,1.2948,1.2939,1.2918,1.2906,1.289,1.2875,1.2879,1.2848,1.285,1.284,1.284,1.2833,1.2833,1.2814,1.2827,1.2827,1.2827,1.2827,0,1.3087,1.307,1.3051,1.3038,1.3019,1.3005,1.2986,1.2974,1.2958,1.2942,1.2932,1.2917,1.2899,1.2882,1.287,1.2848,1.2843,1.2835,1.2832,1.2835,1.2836,1.2827,1.2828,1.2826,1.2826,1.2827,1.2827,0,1.3077,1.3064,1.3041,1.3019,1.3013,1.3,1.2981,1.2968,1.2956,1.2936,1.293,1.2911,1.289,1.2875,1.2847,1.2839,1.2815,1.2812,1.2822,1.282,1.2811,1.2812,1.2784,1.2779,1.2796,1.2796,1.2796,0,1.3067,1.3054,1.3031,1.302,1.3009,1.2992,1.298,1.2966,1.2954,1.2931,1.292,1.2899,1.2881,1.2847,1.283,1.2809,1.2805,1.2797,1.2802,1.2806,1.2804,1.2805,1.2804,1.2796,1.2796,1.2796,1.2796,0,1.3049,1.3043,1.3027,1.3008,1.2994,1.2978,1.2962,1.2953,1.2936,1.2923,1.2902,1.2888,1.286,1.2839,1.2816,1.2803,1.2796,1.2795,1.2791,1.2794,1.28,1.2796,1.2819,1.2795,1.2795,1.2795,1.2795,1.2795,1.3038,1.3026,1.3009,1.299,1.2977,1.2962,1.2949,1.2936,1.2919,1.2896,1.2889,1.2867,1.2848,1.2817,1.2804,1.2786,1.2786,1.2781,1.2779,1.2778,1.2778,1.2804,1.2782,1.2782,1.2782,1.2782,1.2782,0,1.3019,1.3008,1.2991,1.297,1.2955,1.2952,1.2934,1.2922,1.2903,1.2886,1.2869,1.2845,1.2824,1.2806,1.2784,1.2773,1.277,1.2768,1.2768,1.2765,1.278,1.2785,1.2771,1.2772,1.2772,1.2772,1.2772,1.2772,1.3008,1.2988,1.298,1.2953,1.2941,1.2921,1.2911,1.2897,1.2883,1.2857,1.284,1.2829,1.2812,1.2789,1.2769,1.2764,1.2756,1.2756,1.275,1.2763,1.2764,1.2766,1.277,1.2754,1.2754,1.2737,1.2737,1.2737]}]]